Location: Boda
(47.1872°N, 9.5454°E)
Time: 09:36:08
(UTC+00:00)

Okean 2 Rocket - Pass Details

Date: 14 May 2021
Orbit: 617 x 641 km, 82.5° (Epoch: 16 June)

Event Time Altitude Azimuth Distance (km) Brightness Sun altitude
Rises 23:58:05 0° 346° (NNW) 2,902 7.6 -23.6°
Reaches altitude 10° 00:00:21 10° 342° (NNW) 1,991 6.5 -23.5°
Enters shadow 00:04:33 53° 271° (W) 760 3.3 -23.4°
